Location: Sternwarte Stuttgart
(48.7670°N, 9.1830°E)
Time: 08:49:01
(UTC+02:00)

Daily predictions for brighter satellites

Satellite Brightness Start Highest point End
(mag) Time Altitude Azimuth Time Altitude Azimuth Time Altitude Azimuth
Cosmos 2346 Rocket 4.5 21:37:40 10° S 21:43:43 80° E 21:49:49 10° N
Cosmos 1933 Rocket 4.5 21:40:02 10° SSW 21:44:17 53° WNW 21:48:35 10° N
Cosmos 1340 3.6 21:41:52 10° N 21:45:19 32° ENE 21:48:45 10° SE
Helios 1A 3.4 21:42:01 10° S 21:46:11 68° WSW 21:50:25 10° NNW
Meteor 1-27 Rocket 4.5 21:42:13 10° N 21:47:38 39° ENE 21:52:55 10° SE
ATLAS 5 CENTAUR R/B 2.6 21:42:14 10° NW 21:48:02 70° NE 21:54:26 10° SE
Resurs 01 Rocket 4.0 21:46:11 10° SSW 21:49:46 24° W 21:53:22 10° NW
Tiangong 2 3.5 21:49:36 10° SW 21:51:06 13° SSW 21:52:35 10° S
H-2A R/B 4.3 21:51:19 10° ENE 21:52:02 10° NE 21:52:46 10° NE
MetOp-B 4.2 21:51:28 10° SSE 21:56:46 67° ENE 22:02:06 10° N
Meteor 2-6 Rocket 4.5 21:52:09 10° N 21:58:04 68° ENE 22:04:02 10° SSE
Cosmos 1606 2.7 21:55:15 10° N 21:59:01 63° E 22:02:46 10° SSE
Cosmos 1346 Rocket 4.2 21:56:23 10° NNW 22:00:05 39° W 22:03:48 10° SSW
Aureole 3 2.8 21:57:58 10° S 22:00:54 52° E 22:03:52 10° NNE
DNEPR-1 R/B 4.4 21:57:34 10° S 22:02:09 34° ESE 22:06:11 10° NE
Lacrosse 5 rocket 1.6 21:58:54 10° SSW 22:02:12 35° SE 22:05:35 10° ENE
Cosmos 1937 Rocket 4.3 21:58:56 10° SW 22:03:58 56° WNW 22:09:05 10° NNE
SAR-Lupe-4 4.0 22:01:12 10° S 22:04:44 62° WSW 22:08:19 10° NNW
H-2A R/B 2.6 21:59:57 10° SE 22:05:06 46° ENE 22:10:09 10° N
CZ-4B DEB 3.7 22:03:23 10° S 22:06:11 41° W 22:09:00 10° NNW
ARGOS 3.2 22:02:14 10° SSE 22:07:34 69° ENE 22:12:55 10° N
Cosmos 158 Rocket 3.8 22:03:30 10° NNW 22:08:26 86° ENE 22:13:19 10° SSE
Okean 1-7 3.2 22:05:05 10° NNW 22:09:30 77° W 22:13:54 10° S
NOSS 3-2 (A) 4.1 22:04:40 10° SW 22:10:46 66° NW 22:17:36 10° NE
YAOGAN 6 4.1 22:08:47 10° SSW 22:12:14 36° W 22:15:40 10° NNW
Meteor 2-3 Rocket 4.4 22:09:21 10° SSW 22:14:59 60° WNW 22:20:36 10° N
USA 215 3.5 22:13:05 11° SE 22:19:28 64° SW 22:26:00 10° WNW
ERS-1 Rocket 3.6 22:24:49 10° S 22:29:45 54° W 22:34:43 10° NNW
Meteor 1-29 4.2 22:26:30 10° N 22:29:52 45° WNW 22:33:13 10° SW
NOSS 3-2 (C) 4.1 22:25:15 10° SW 22:31:21 64° NW 22:38:12 10° NE
Cosmos 2227 Rocket 4.0 22:27:54 10° N 22:32:07 21° NE 22:36:18 10° E
Cosmos 1048 Rocket 4.4 22:28:32 10° NNW 22:33:49 63° WSW 22:38:50 11° S
Cosmos 1733 Rocket 3.3 22:33:32 13° SSE 22:37:15 49° E 22:41:27 10° NNE
Cosmos 1782 3.9 22:33:46 10° NNW 22:37:35 43° W 22:41:21 10° SSW
Cosmos 2219 3.9 22:32:42 10° NNW 22:38:15 46° NE 22:42:44 15° ESE
SL-08 RB Rocket 3.9 22:34:30 11° S 22:38:57 79° WSW 22:43:39 10° NNW
Cosmos 1408 3.1 22:36:37 10° SSW 22:40:18 63° W 22:44:03 10° N
Helios 1B rocket 4.4 22:41:43 10° N 22:45:22 31° WNW 22:49:00 10° SW
Landsat 7 3.9 22:41:55 17° SSE 22:45:34 67° ENE 22:50:19 10° N
CENTAUR R/B 2.5 22:40:16 10° SSW 22:46:23 75° SE 22:53:25 10° NE
Cosmos 1825 2.9 22:45:34 10° SSW 22:49:16 53° WNW 22:53:00 10° N
Gbstr 26 Del rocket 3.4 22:45:11 10° WNW 22:49:54 62° N 22:53:53 10° E
DMSP B5D2-2 4.3 22:45:50 10° NNE 22:50:55 50° E 22:54:58 16° S
Cosmos 1943 Rocket 2.1 22:45:34 10° SSW 22:51:10 88° ESE 22:56:46 10° NNE
Cosmos 2251 Rocket 3.7 22:50:18 10° NNW 22:55:32 63° ENE 22:59:01 21° SE
Cosmos 1975 Rocket 4.3 22:53:16 10° N 22:57:12 29° ENE 22:59:27 19° ESE
Lacrosse 4 Rocket 2.3 22:53:04 10° NW 22:57:22 45° WSW 23:00:27 17° S
Cosmos 1092 Rocket 4.1 22:53:30 16° SSE 22:58:24 56° E 23:04:23 10° NNE
Nadezhda 4 Rocket 3.9 22:53:18 10° S 22:59:29 78° E 23:05:40 10° NNE
Terra 1.9 22:57:35 21° SSE 23:00:43 67° ENE 23:05:28 10° N
Cosmos 1862 3.5 22:56:59 10° SSW 23:00:57 71° W 23:04:56 10° N
SPOT 1/Viking Rocket 3.9 22:58:56 14° S 23:03:19 63° WSW 23:08:32 10° NNW
COSMOS 2455 3.8 22:58:37 10° SW 23:04:29 52° NW 23:10:23 10° NNE
Cosmos 372 Rocket 4.4 23:03:46 10° SW 23:08:51 64° WNW 23:13:57 10° NNE
CARTOSAT-1 3.5 23:07:47 24° SSE 23:10:20 82° ENE 23:14:42 10° NNW
Cosmos 1674 Rocket 3.6 23:05:59 10° NNW 23:10:20 73° W 23:13:08 21° S
ATLAS CENTAUR R/B 2.6 23:11:19 21° ESE 23:11:19 21° ESE 23:13:51 10° ENE
Cosmos 1812 3.4 23:07:30 10° N 23:11:13 41° ENE 23:12:45 28° SE
Cosmos 1378 Rocket 3.6 23:06:59 10° N 23:11:24 67° ENE 23:13:46 27° SSE
Cosmos 2369 Rocket 3.5 23:06:50 10° SW 23:12:14 43° NW 23:17:42 10° NNE
GEOS 3 Rocket 3.7 23:10:20 23° SSE 23:13:37 72° SW 23:18:53 10° NW
Cosmos 1346 2.6 23:10:57 10° N 23:13:40 84° ENE 23:14:15 50° SSE
SPOT 5 4.2 23:10:27 10° SSW 23:15:27 39° W 23:20:25 10° NNW
Cosmos 2344 3.6 23:07:57 10° SSW 23:15:34 75° SE 23:24:24 10° NE
ISS -3.8 23:14:56 10° WSW 23:18:12 79° NNW 23:21:27 10° ENE
Alouette 2 Rocket 4.4 23:10:45 10° SSW 23:18:13 84° WNW 23:23:01 10° NNE
Cosmos 2297 Rocket 3.3 23:22:05 10° NNW 23:27:18 35° NE 23:31:06 17° ESE
H-2A R/B 1.9 23:25:29 32° SSE 23:27:18 78° ENE 23:31:28 10° NNW
CZ-4C R/B 4.2 23:26:58 27° ESE 23:28:43 41° ENE 23:32:36 10° N
Cosmos 1437 3.4 23:27:31 10° NNW 23:30:37 47° W 23:31:45 31° SSW
Okean 1 4.1 23:27:04 10° N 23:30:51 38° ENE 23:32:05 30° ESE
Cosmos 405 Rocket 2.8 23:28:19 10° N 23:32:01 58° ENE 23:33:05 40° SE
ATLAS 5 CENTAUR R/B 3.7 23:27:22 10° WNW 23:32:30 30° WSW 23:36:29 16° SSW
CZ-4 R/B 4.0 23:28:42 10° NNE 23:33:14 49° E 23:35:01 32° SSE
Spot 4 3.9 23:32:42 30° SSE 23:35:02 73° ENE 23:39:52 10° N
Okean 3 3.7 23:31:28 10° NNW 23:35:37 63° W 23:37:38 28° SSW
Cosmos 1867 4.0 23:32:08 10° NW 23:37:27 53° WSW 23:40:07 28° S
Lacrosse 5 rocket 2.3 23:37:50 10° W 23:41:19 44° NNW 23:44:57 10° NE
IGS 5A 4.1 23:39:47 26° SSW 23:41:48 50° W 23:45:52 10° NNW
H-2A R/B 3.6 23:40:15 11° SSW 23:44:40 30° W 23:49:18 10° NNW
Cosmos 2195 Rocket 4.5 23:44:30 22° S 23:48:46 88° E 23:55:08 10° N
Cosmos 1908 Rocket 3.8 23:47:07 25° SSW 23:49:41 68° WNW 23:54:08 10° N
Cosmos 1656 Rocket 3.8 23:44:50 10° SW 23:50:18 72° WNW 23:55:52 10° NNE
Cosmos 2082 4.3 23:46:27 10° NNW 23:52:03 51° NE 23:55:10 25° ESE
CZ-2C R/B 3.7 23:51:24 27° ESE 23:53:36 43° ENE 23:58:14 10° N
BREEZE M DEB (TANK) 2.8 23:50:05 10° WSW 23:56:50 79° SSE 23:58:36 22° E
